contact:dominique.lefevre@mio.osupytheas.fr, maurice.libes@osupytheas.fr, didier.mallarino@osupytheas.fr
Project:EMSO http://www.emso-fr.org/EMSO-France
Depth: 2436.0 m
Title:EMSO Ligure Ouest : Data MII capteur MICROCAT
DateTime_Computer,Latitude,Longitude,Temperature,Conductivity,Pressure,DateTime_Instrument
DateTime_Computer,Latitude,Longitude,degC,S m-1,dbar,DateTime_Instrument
2022-08-11T00:00:59Z,42.805,6.029,13.3009,4.60044,2470.6,2022-8-11T02:02:48Z
2022-08-11T00:04:02Z,42.805,6.029,13.3009,4.60049,2470.591,2022-8-11T02:05:51Z
2022-08-11T00:07:05Z,42.805,6.029,13.3005,4.60041,2470.591,2022-8-11T02:08:54Z
2022-08-11T00:10:08Z,42.805,6.029,13.3007,4.60042,2470.553,2022-8-11T02:11:57Z
2022-08-11T00:13:11Z,42.805,6.029,13.3009,4.60046,2470.591,2022-8-11T02:15:00Z
2022-08-11T00:16:14Z,42.805,6.029,13.3006,4.60043,2470.577,2022-8-11T02:18:03Z
2022-08-11T00:19:17Z,42.805,6.029,13.3006,4.60041,2470.53,2022-8-11T02:21:06Z
2022-08-11T00:22:21Z,42.805,6.029,13.3004,4.60042,2470.539,2022-8-11T02:24:09Z
2022-08-11T00:25:24Z,42.805,6.029,13.3010,4.60045,2470.591,2022-8-11T02:27:13Z
2022-08-11T00:28:27Z,42.805,6.029,13.3009,4.60044,2470.567,2022-8-11T02:30:16Z
2022-08-11T00:31:30Z,42.805,6.029,13.3014,4.60043,2470.516,2022-8-11T02:33:19Z
2022-08-11T00:34:33Z,42.805,6.029,13.3004,4.60046,2470.577,2022-8-11T02:36:22Z
2022-08-11T00:37:36Z,42.805,6.029,13.3008,4.60046,2470.553,2022-8-11T02:39:25Z
2022-08-11T00:40:39Z,42.805,6.029,13.3009,4.60046,2470.577,2022-8-11T02:42:28Z
2022-08-11T00:43:42Z,42.805,6.029,13.3005,4.60047,2470.586,2022-8-11T02:45:31Z
2022-08-11T00:46:46Z,42.805,6.029,13.3010,4.60046,2470.553,2022-8-11T02:48:34Z
2022-08-11T00:49:49Z,42.805,6.029,13.3012,4.60042,2470.577,2022-8-11T02:51:38Z
2022-08-11T00:52:52Z,42.805,6.029,13.3006,4.60044,2470.577,2022-8-11T02:54:41Z
2022-08-11T00:55:55Z,42.805,6.029,13.3008,4.60045,2470.553,2022-8-11T02:57:44Z
2022-08-11T00:58:58Z,42.805,6.029,13.3006,4.60042,2470.567,2022-8-11T03:00:47Z
2022-08-11T01:02:01Z,42.805,6.029,13.3008,4.60042,2470.567,2022-8-11T03:03:50Z
2022-08-11T01:05:04Z,42.805,6.029,13.3008,4.60045,2470.591,2022-8-11T03:06:53Z
2022-08-11T01:08:07Z,42.805,6.029,13.3003,4.60044,2470.53,2022-8-11T03:09:56Z
2022-08-11T01:11:11Z,42.805,6.029,13.3006,4.60049,2470.553,2022-8-11T03:12:59Z
2022-08-11T01:14:14Z,42.805,6.029,13.3005,4.60045,2470.553,2022-8-11T03:16:03Z
2022-08-11T01:17:17Z,42.805,6.029,13.3005,4.60045,2470.567,2022-8-11T03:19:06Z
2022-08-11T01:20:20Z,42.805,6.029,13.3006,4.60044,2470.553,2022-8-11T03:22:09Z
2022-08-11T01:23:23Z,42.805,6.029,13.3008,4.60042,2470.53,2022-8-11T03:25:12Z
2022-08-11T01:26:26Z,42.805,6.029,13.3008,4.60047,2470.567,2022-8-11T03:28:15Z
2022-08-11T01:29:29Z,42.805,6.029,13.3011,4.60042,2470.553,2022-8-11T03:31:18Z
2022-08-11T01:32:32Z,42.805,6.029,13.3006,4.60042,2470.53,2022-8-11T03:34:21Z
2022-08-11T01:35:35Z,42.805,6.029,13.3006,4.60047,2470.567,2022-8-11T03:37:24Z
2022-08-11T01:38:39Z,42.805,6.029,13.3004,4.60051,2470.567,2022-8-11T03:40:27Z
2022-08-11T01:41:42Z,42.805,6.029,13.3009,4.60049,2470.567,2022-8-11T03:43:31Z
2022-08-11T01:44:45Z,42.805,6.029,13.3005,4.60042,2470.567,2022-8-11T03:46:34Z
2022-08-11T01:47:48Z,42.805,6.029,13.3006,4.60044,2470.553,2022-8-11T03:49:37Z
2022-08-11T01:50:51Z,42.805,6.029,13.3008,4.60043,2470.567,2022-8-11T03:52:40Z
2022-08-11T01:53:54Z,42.805,6.029,13.3011,4.60051,2470.53,2022-8-11T03:55:43Z
2022-08-11T01:56:57Z,42.805,6.029,13.3009,4.60042,2470.553,2022-8-11T03:58:46Z
2022-08-11T02:00:00Z,42.805,6.029,13.3008,4.60042,2470.567,2022-8-11T04:01:49Z
2022-08-11T02:03:04Z,42.805,6.029,13.3006,4.60042,2470.53,2022-8-11T04:04:52Z
2022-08-11T02:06:07Z,42.805,6.029,13.3008,4.60042,2470.553,2022-8-11T04:07:56Z
2022-08-11T02:09:10Z,42.805,6.029,13.3006,4.60041,2470.567,2022-8-11T04:10:59Z
2022-08-11T02:12:13Z,42.805,6.029,13.3004,4.60043,2470.553,2022-8-11T04:14:02Z
2022-08-11T02:15:16Z,42.805,6.029,13.3009,4.60044,2470.553,2022-8-11T04:17:05Z
2022-08-11T02:18:19Z,42.805,6.029,13.3009,4.60047,2470.567,2022-8-11T04:20:08Z
2022-08-11T02:21:22Z,42.805,6.029,13.3009,4.60046,2470.591,2022-8-11T04:23:11Z
2022-08-11T02:24:25Z,42.805,6.029,13.3006,4.60045,2470.577,2022-8-11T04:26:14Z
2022-08-11T02:27:29Z,42.805,6.029,13.3005,4.60044,2470.553,2022-8-11T04:29:17Z
2022-08-11T02:30:32Z,42.805,6.029,13.3018,4.60042,2470.544,2022-8-11T04:32:21Z
2022-08-11T02:33:35Z,42.805,6.029,13.3006,4.60043,2470.53,2022-8-11T04:35:24Z
2022-08-11T02:36:38Z,42.805,6.029,13.3008,4.60046,2470.577,2022-8-11T04:38:27Z
2022-08-11T02:39:41Z,42.805,6.029,13.3007,4.60049,2470.567,2022-8-11T04:41:30Z
2022-08-11T02:42:44Z,42.805,6.029,13.3010,4.60043,2470.553,2022-8-11T04:44:33Z
2022-08-11T02:45:47Z,42.805,6.029,13.3013,4.60043,2470.553,2022-8-11T04:47:36Z
2022-08-11T02:48:50Z,42.805,6.029,13.3011,4.60052,2470.591,2022-8-11T04:50:39Z
2022-08-11T02:51:54Z,42.805,6.029,13.3008,4.60042,2470.553,2022-8-11T04:53:42Z
2022-08-11T02:54:57Z,42.805,6.029,13.3007,4.60046,2470.6,2022-8-11T04:56:46Z
2022-08-11T02:58:00Z,42.805,6.029,13.3009,4.60044,2470.614,2022-8-11T04:59:49Z
2022-08-11T03:01:03Z,42.805,6.029,13.3006,4.60043,2470.553,2022-8-11T05:02:52Z
2022-08-11T03:04:06Z,42.805,6.029,13.3004,4.60043,2470.591,2022-8-11T05:05:55Z
2022-08-11T03:07:09Z,42.805,6.029,13.3008,4.60045,2470.6,2022-8-11T05:08:58Z
2022-08-11T03:10:12Z,42.805,6.029,13.3010,4.60046,2470.614,2022-8-11T05:12:01Z
2022-08-11T03:13:15Z,42.805,6.029,13.3005,4.60043,2470.6,2022-8-11T05:15:04Z
2022-08-11T03:16:18Z,42.805,6.029,13.3006,4.60046,2470.577,2022-8-11T05:18:07Z
2022-08-11T03:19:22Z,42.805,6.029,13.3005,4.60043,2470.553,2022-8-11T05:21:10Z
2022-08-11T03:22:25Z,42.805,6.029,13.3006,4.60042,2470.577,2022-8-11T05:24:14Z
2022-08-11T03:25:28Z,42.805,6.029,13.3009,4.60047,2470.6,2022-8-11T05:27:17Z
2022-08-11T03:28:31Z,42.805,6.029,13.3007,4.60042,2470.6,2022-8-11T05:30:20Z
2022-08-11T03:31:34Z,42.805,6.029,13.3013,4.60043,2470.577,2022-8-11T05:33:23Z
2022-08-11T03:34:37Z,42.805,6.029,13.3009,4.60042,2470.577,2022-8-11T05:36:26Z
2022-08-11T03:37:40Z,42.805,6.029,13.3012,4.60043,2470.624,2022-8-11T05:39:29Z
2022-08-11T03:40:43Z,42.805,6.029,13.3009,4.60044,2470.637,2022-8-11T05:42:32Z
2022-08-11T03:43:47Z,42.805,6.029,13.3009,4.60041,2470.577,2022-8-11T05:45:35Z
2022-08-11T03:46:50Z,42.805,6.029,13.3009,4.60043,2470.553,2022-8-11T05:48:39Z
2022-08-11T03:49:53Z,42.805,6.029,13.3007,4.60042,2470.624,2022-8-11T05:51:42Z
2022-08-11T03:52:56Z,42.805,6.029,13.3006,4.60049,2470.614,2022-8-11T05:54:45Z
2022-08-11T03:55:59Z,42.805,6.029,13.3006,4.60044,2470.6,2022-8-11T05:57:48Z
2022-08-11T03:59:02Z,42.805,6.029,13.3009,4.60042,2470.577,2022-8-11T06:00:51Z
2022-08-11T04:02:05Z,42.805,6.029,13.3006,4.60044,2470.624,2022-8-11T06:03:54Z
2022-08-11T04:05:08Z,42.805,6.029,13.3007,4.60044,2470.646,2022-8-11T06:06:57Z
2022-08-11T04:08:12Z,42.805,6.029,13.3006,4.60051,2470.637,2022-8-11T06:10:00Z
2022-08-11T04:11:15Z,42.805,6.029,13.3006,4.60045,2470.6,2022-8-11T06:13:04Z
2022-08-11T04:14:18Z,42.805,6.029,13.3008,4.60043,2470.646,2022-8-11T06:16:07Z
2022-08-11T04:17:21Z,42.805,6.029,13.3006,4.60049,2470.637,2022-8-11T06:19:10Z
2022-08-11T04:20:24Z,42.805,6.029,13.3006,4.60045,2470.624,2022-8-11T06:22:13Z
2022-08-11T04:23:27Z,42.805,6.029,13.3011,4.60044,2470.646,2022-8-11T06:25:16Z
2022-08-11T04:26:30Z,42.805,6.029,13.3010,4.60044,2470.646,2022-8-11T06:28:19Z
2022-08-11T04:29:33Z,42.805,6.029,13.3011,4.60050,2470.637,2022-8-11T06:31:22Z
2022-08-11T04:32:37Z,42.805,6.029,13.3009,4.60043,2470.637,2022-8-11T06:34:25Z
2022-08-11T04:35:40Z,42.805,6.029,13.3006,4.60050,2470.684,2022-8-11T06:37:29Z
2022-08-11T04:38:43Z,42.805,6.029,13.3006,4.60045,2470.67,2022-8-11T06:40:32Z
2022-08-11T04:41:46Z,42.805,6.029,13.3008,4.60044,2470.624,2022-8-11T06:43:35Z
2022-08-11T04:44:49Z,42.805,6.029,13.3006,4.60045,2470.624,2022-8-11T06:46:38Z
2022-08-11T04:47:52Z,42.805,6.029,13.3010,4.60046,2470.661,2022-8-11T06:49:41Z
2022-08-11T04:50:55Z,42.805,6.029,13.3009,4.60044,2470.661,2022-8-11T06:52:44Z
2022-08-11T04:53:58Z,42.805,6.029,13.3006,4.60045,2470.661,2022-8-11T06:55:47Z
2022-08-11T04:57:02Z,42.805,6.029,13.3006,4.60046,2470.67,2022-8-11T06:58:50Z
2022-08-11T05:00:05Z,42.805,6.029,13.3007,4.60043,2470.684,2022-8-11T07:01:54Z
2022-08-11T05:03:08Z,42.805,6.029,13.3006,4.60044,2470.684,2022-8-11T07:04:57Z
2022-08-11T05:06:11Z,42.805,6.029,13.3006,4.60048,2470.646,2022-8-11T07:08:00Z
2022-08-11T05:09:14Z,42.805,6.029,13.3011,4.60046,2470.684,2022-8-11T07:11:03Z
2022-08-11T05:12:17Z,42.805,6.029,13.3006,4.60044,2470.646,2022-8-11T07:14:06Z
2022-08-11T05:15:20Z,42.805,6.029,13.3006,4.60045,2470.67,2022-8-11T07:17:09Z
2022-08-11T05:18:23Z,42.805,6.029,13.3006,4.60047,2470.67,2022-8-11T07:20:12Z
2022-08-11T05:21:26Z,42.805,6.029,13.3008,4.60046,2470.684,2022-8-11T07:23:15Z
2022-08-11T05:24:30Z,42.805,6.029,13.3006,4.60046,2470.661,2022-8-11T07:26:19Z
2022-08-11T05:27:33Z,42.805,6.029,13.3009,4.60044,2470.661,2022-8-11T07:29:22Z
2022-08-11T05:30:36Z,42.805,6.029,13.3006,4.60049,2470.661,2022-8-11T07:32:25Z
2022-08-11T05:33:39Z,42.805,6.029,13.3009,4.60046,2470.693,2022-8-11T07:35:28Z
2022-08-11T05:36:42Z,42.805,6.029,13.3005,4.60046,2470.67,2022-8-11T07:38:31Z
2022-08-11T05:39:45Z,42.805,6.029,13.3007,4.60046,2470.67,2022-8-11T07:41:34Z
2022-08-11T05:42:48Z,42.805,6.029,13.3006,4.60047,2470.67,2022-8-11T07:44:37Z
2022-08-11T05:45:51Z,42.805,6.029,13.3008,4.60046,2470.707,2022-8-11T07:47:40Z
2022-08-11T05:48:55Z,42.805,6.029,13.3008,4.60044,2470.67,2022-8-11T07:50:43Z
2022-08-11T05:51:58Z,42.805,6.029,13.3008,4.60046,2470.67,2022-8-11T07:53:47Z
2022-08-11T05:55:01Z,42.805,6.029,13.3007,4.60046,2470.684,2022-8-11T07:56:50Z
2022-08-11T05:58:04Z,42.805,6.029,13.3006,4.60043,2470.67,2022-8-11T07:59:53Z
2022-08-11T06:01:07Z,42.805,6.029,13.3004,4.60045,2470.693,2022-8-11T08:02:56Z
2022-08-11T06:04:10Z,42.805,6.029,13.3010,4.60044,2470.693,2022-8-11T08:05:59Z
2022-08-11T06:07:13Z,42.805,6.029,13.3004,4.60043,2470.707,2022-8-11T08:09:02Z
2022-08-11T06:10:16Z,42.805,6.029,13.3008,4.60044,2470.684,2022-8-11T08:12:05Z
2022-08-11T06:13:19Z,42.805,6.029,13.3006,4.60045,2470.693,2022-8-11T08:15:08Z
2022-08-11T06:16:23Z,42.805,6.029,13.3009,4.60044,2470.67,2022-8-11T08:18:12Z
2022-08-11T06:19:26Z,42.805,6.029,13.3006,4.60049,2470.67,2022-8-11T08:21:15Z
2022-08-11T06:22:29Z,42.805,6.029,13.3009,4.60044,2470.661,2022-8-11T08:24:18Z
2022-08-11T06:25:32Z,42.805,6.029,13.3009,4.60044,2470.646,2022-8-11T08:27:21Z
2022-08-11T06:28:35Z,42.805,6.029,13.3006,4.60043,2470.707,2022-8-11T08:30:24Z
2022-08-11T06:31:38Z,42.805,6.029,13.3003,4.60046,2470.693,2022-8-11T08:33:27Z
2022-08-11T06:34:41Z,42.805,6.029,13.3007,4.60044,2470.693,2022-8-11T08:36:30Z
2022-08-11T06:37:44Z,42.805,6.029,13.3004,4.60044,2470.74,2022-8-11T08:39:33Z
2022-08-11T06:40:48Z,42.805,6.029,13.3009,4.60044,2470.67,2022-8-11T08:42:36Z
2022-08-11T06:43:51Z,42.805,6.029,13.3006,4.60044,2470.693,2022-8-11T08:45:40Z
2022-08-11T06:46:54Z,42.805,6.029,13.3008,4.60043,2470.684,2022-8-11T08:48:43Z
2022-08-11T06:49:57Z,42.805,6.029,13.3006,4.60044,2470.661,2022-8-11T08:51:46Z
2022-08-11T06:53:00Z,42.805,6.029,13.3007,4.60043,2470.684,2022-8-11T08:54:49Z
2022-08-11T06:56:03Z,42.805,6.029,13.3009,4.60046,2470.684,2022-8-11T08:57:52Z
2022-08-11T06:59:06Z,42.805,6.029,13.3005,4.60044,2470.693,2022-8-11T09:00:55Z
2022-08-11T07:02:09Z,42.805,6.029,13.3008,4.60044,2470.693,2022-8-11T09:03:58Z
2022-08-11T07:05:13Z,42.805,6.029,13.3007,4.60043,2470.646,2022-8-11T09:07:01Z
2022-08-11T07:08:16Z,42.805,6.029,13.3006,4.60042,2470.67,2022-8-11T09:10:05Z
2022-08-11T07:11:19Z,42.805,6.029,13.3006,4.60049,2470.67,2022-8-11T09:13:08Z
2022-08-11T07:14:22Z,42.805,6.029,13.3007,4.60044,2470.684,2022-8-11T09:16:11Z
2022-08-11T07:17:25Z,42.805,6.029,13.3009,4.60044,2470.646,2022-8-11T09:19:14Z
2022-08-11T07:20:28Z,42.805,6.029,13.3002,4.60045,2470.684,2022-8-11T09:22:17Z
2022-08-11T07:23:31Z,42.805,6.029,13.3007,4.60042,2470.693,2022-8-11T09:25:20Z
2022-08-11T07:26:34Z,42.805,6.029,13.3008,4.60044,2470.684,2022-8-11T09:28:23Z
2022-08-11T07:29:38Z,42.805,6.029,13.3005,4.60042,2470.693,2022-8-11T09:31:26Z
2022-08-11T07:32:41Z,42.805,6.029,13.3006,4.60042,2470.656,2022-8-11T09:34:30Z
2022-08-11T07:35:44Z,42.805,6.029,13.3009,4.60044,2470.646,2022-8-11T09:37:33Z
2022-08-11T07:38:47Z,42.805,6.029,13.3009,4.60043,2470.656,2022-8-11T09:40:36Z
2022-08-11T07:41:50Z,42.805,6.029,13.3002,4.60042,2470.637,2022-8-11T09:43:39Z
2022-08-11T07:44:53Z,42.805,6.029,13.3005,4.60044,2470.67,2022-8-11T09:46:42Z
2022-08-11T07:47:56Z,42.805,6.029,13.3005,4.60043,2470.646,2022-8-11T09:49:45Z
2022-08-11T07:50:59Z,42.805,6.029,13.3006,4.60043,2470.661,2022-8-11T09:52:48Z
2022-08-11T07:54:02Z,42.805,6.029,13.3005,4.60043,2470.637,2022-8-11T09:55:51Z
2022-08-11T07:57:06Z,42.805,6.029,13.3009,4.60042,2470.661,2022-8-11T09:58:55Z
2022-08-11T08:00:09Z,42.805,6.029,13.3006,4.60044,2470.67,2022-8-11T10:01:58Z
2022-08-11T08:03:12Z,42.805,6.029,13.3004,4.60043,2470.684,2022-8-11T10:05:01Z
2022-08-11T08:06:15Z,42.805,6.029,13.3006,4.60046,2470.646,2022-8-11T10:08:04Z
2022-08-11T08:09:18Z,42.805,6.029,13.3005,4.60044,2470.624,2022-8-11T10:11:07Z
2022-08-11T08:12:21Z,42.805,6.029,13.3007,4.60043,2470.624,2022-8-11T10:14:10Z
2022-08-11T08:15:24Z,42.805,6.029,13.3008,4.60043,2470.624,2022-8-11T10:17:13Z
2022-08-11T08:18:27Z,42.805,6.029,13.3004,4.60044,2470.624,2022-8-11T10:20:16Z
2022-08-11T08:21:31Z,42.805,6.029,13.3007,4.60044,2470.6,2022-8-11T10:23:20Z
2022-08-11T08:24:34Z,42.805,6.029,13.3009,4.60044,2470.633,2022-8-11T10:26:23Z
2022-08-11T08:27:37Z,42.805,6.029,13.3005,4.60044,2470.6,2022-8-11T10:29:26Z
2022-08-11T08:30:40Z,42.805,6.029,13.3006,4.60045,2470.637,2022-8-11T10:32:29Z
2022-08-11T08:33:43Z,42.805,6.029,13.3006,4.60042,2470.637,2022-8-11T10:35:32Z
2022-08-11T08:36:46Z,42.805,6.029,13.3006,4.60042,2470.661,2022-8-11T10:38:35Z
2022-08-11T08:39:49Z,42.805,6.029,13.3007,4.60042,2470.646,2022-8-11T10:41:38Z
2022-08-11T08:42:53Z,42.805,6.029,13.3008,4.60043,2470.624,2022-8-11T10:44:41Z
2022-08-11T08:45:56Z,42.805,6.029,13.3006,4.60045,2470.624,2022-8-11T10:47:45Z
2022-08-11T08:48:59Z,42.805,6.029,13.3004,4.60046,2470.6,2022-8-11T10:50:48Z
2022-08-11T08:52:02Z,42.805,6.029,13.3008,4.60049,2470.577,2022-8-11T10:53:51Z
2022-08-11T08:55:05Z,42.805,6.029,13.3005,4.60045,2470.614,2022-8-11T10:56:54Z
2022-08-11T08:58:08Z,42.805,6.029,13.3009,4.60043,2470.624,2022-8-11T10:59:57Z
2022-08-11T09:01:11Z,42.805,6.029,13.3006,4.60044,2470.614,2022-8-11T11:03:00Z
2022-08-11T09:04:14Z,42.805,6.029,13.3004,4.60043,2470.624,2022-8-11T11:06:03Z
2022-08-11T09:07:18Z,42.805,6.029,13.3011,4.60042,2470.6,2022-8-11T11:09:06Z
2022-08-11T09:10:21Z,42.805,6.029,13.3005,4.60044,2470.624,2022-8-11T11:12:10Z
2022-08-11T09:13:24Z,42.805,6.029,13.3007,4.60044,2470.6,2022-8-11T11:15:13Z
2022-08-11T09:16:27Z,42.805,6.029,13.3007,4.60044,2470.614,2022-8-11T11:18:16Z
2022-08-11T09:19:30Z,42.805,6.029,13.3003,4.60042,2470.6,2022-8-11T11:21:19Z
2022-08-11T09:22:33Z,42.805,6.029,13.3011,4.60043,2470.577,2022-8-11T11:24:22Z
2022-08-11T09:25:36Z,42.805,6.029,13.3008,4.60043,2470.614,2022-8-11T11:27:25Z
2022-08-11T09:28:39Z,42.805,6.029,13.3009,4.60043,2470.6,2022-8-11T11:30:28Z
2022-08-11T09:31:43Z,42.805,6.029,13.3009,4.60043,2470.577,2022-8-11T11:33:31Z
2022-08-11T09:34:46Z,42.805,6.029,13.3005,4.60042,2470.6,2022-8-11T11:36:35Z
2022-08-11T09:37:49Z,42.805,6.029,13.3007,4.60046,2470.6,2022-8-11T11:39:38Z
2022-08-11T09:40:52Z,42.805,6.029,13.3009,4.60046,2470.6,2022-8-11T11:42:41Z
2022-08-11T09:43:55Z,42.805,6.029,13.3005,4.60044,2470.637,2022-8-11T11:45:44Z
2022-08-11T09:46:58Z,42.805,6.029,13.3000,4.60045,2470.6,2022-8-11T11:48:47Z
2022-08-11T09:50:01Z,42.805,6.029,13.3007,4.60047,2470.6,2022-8-11T11:51:50Z
2022-08-11T09:53:04Z,42.805,6.029,13.3008,4.60042,2470.553,2022-8-11T11:54:53Z
2022-08-11T09:56:08Z,42.805,6.029,13.3009,4.60042,2470.591,2022-8-11T11:57:56Z
2022-08-11T09:59:11Z,42.805,6.029,13.3006,4.60049,2470.591,2022-8-11T12:01:00Z
2022-08-11T10:02:14Z,42.805,6.029,13.3013,4.60044,2470.6,2022-8-11T12:04:03Z
2022-08-11T10:05:17Z,42.805,6.029,13.3009,4.60045,2470.553,2022-8-11T12:07:06Z
2022-08-11T10:08:20Z,42.805,6.029,13.3008,4.60046,2470.591,2022-8-11T12:10:09Z
2022-08-11T10:11:23Z,42.805,6.029,13.3007,4.60043,2470.553,2022-8-11T12:13:12Z
2022-08-11T10:14:26Z,42.805,6.029,13.3006,4.60045,2470.553,2022-8-11T12:16:15Z
2022-08-11T10:17:29Z,42.805,6.029,13.3005,4.60044,2470.553,2022-8-11T12:19:18Z
2022-08-11T10:20:33Z,42.805,6.029,13.3006,4.60042,2470.567,2022-8-11T12:22:21Z
2022-08-11T10:23:36Z,42.805,6.029,13.3007,4.60044,2470.553,2022-8-11T12:25:25Z
2022-08-11T10:26:39Z,42.805,6.029,13.3005,4.60042,2470.553,2022-8-11T12:28:28Z
2022-08-11T10:29:42Z,42.805,6.029,13.3005,4.60042,2470.553,2022-8-11T12:31:31Z
2022-08-11T10:32:45Z,42.805,6.029,13.3007,4.60043,2470.53,2022-8-11T12:34:34Z
2022-08-11T10:35:48Z,42.805,6.029,13.3004,4.60043,2470.544,2022-8-11T12:37:37Z
2022-08-11T10:38:51Z,42.805,6.029,13.3006,4.60045,2470.53,2022-8-11T12:40:40Z
2022-08-11T10:41:54Z,42.805,6.029,13.3011,4.60041,2470.6,2022-8-11T12:43:43Z
2022-08-11T10:44:58Z,42.805,6.029,13.3011,4.60042,2470.544,2022-8-11T12:46:46Z
2022-08-11T10:48:01Z,42.805,6.029,13.3009,4.60047,2470.53,2022-8-11T12:49:50Z
2022-08-11T10:51:04Z,42.805,6.029,13.3015,4.60042,2470.507,2022-8-11T12:52:53Z
2022-08-11T10:54:07Z,42.805,6.029,13.3009,4.60043,2470.553,2022-8-11T12:55:56Z
2022-08-11T10:57:10Z,42.805,6.029,13.3009,4.60042,2470.507,2022-8-11T12:58:59Z
2022-08-11T11:00:13Z,42.805,6.029,13.3011,4.60043,2470.544,2022-8-11T13:02:02Z
2022-08-11T11:03:16Z,42.805,6.029,13.3008,4.60044,2470.53,2022-8-11T13:05:05Z
2022-08-11T11:06:19Z,42.805,6.029,13.3007,4.60042,2470.544,2022-8-11T13:08:08Z
2022-08-11T11:09:23Z,42.805,6.029,13.3011,4.60045,2470.53,2022-8-11T13:11:11Z
2022-08-11T11:12:26Z,42.805,6.029,13.3007,4.60044,2470.497,2022-8-11T13:14:15Z
2022-08-11T11:15:29Z,42.805,6.029,13.3009,4.60046,2470.507,2022-8-11T13:17:18Z
2022-08-11T11:18:32Z,42.805,6.029,13.3008,4.60046,2470.53,2022-8-11T13:20:21Z
2022-08-11T11:21:35Z,42.805,6.029,13.3009,4.60054,2470.53,2022-8-11T13:23:24Z
2022-08-11T11:24:38Z,42.805,6.029,13.3010,4.60042,2470.483,2022-8-11T13:26:27Z
2022-08-11T11:27:41Z,42.805,6.029,13.3009,4.60043,2470.507,2022-8-11T13:29:30Z
2022-08-11T11:30:44Z,42.805,6.029,13.3004,4.60043,2470.52,2022-8-11T13:32:33Z
2022-08-11T11:33:48Z,42.805,6.029,13.3009,4.60042,2470.52,2022-8-11T13:35:37Z
2022-08-11T11:36:51Z,42.805,6.029,13.3007,4.60045,2470.483,2022-8-11T13:38:40Z
2022-08-11T11:39:54Z,42.805,6.029,13.3004,4.60044,2470.507,2022-8-11T13:41:43Z
2022-08-11T11:42:57Z,42.805,6.029,13.3009,4.60044,2470.474,2022-8-11T13:44:46Z
2022-08-11T11:46:00Z,42.805,6.029,13.3009,4.60052,2470.483,2022-8-11T13:47:49Z
2022-08-11T11:49:03Z,42.805,6.029,13.3010,4.60043,2470.52,2022-8-11T13:50:52Z
2022-08-11T11:52:06Z,42.805,6.029,13.3010,4.60045,2470.483,2022-8-11T13:53:55Z
2022-08-11T11:55:10Z,42.805,6.029,13.3009,4.60044,2470.52,2022-8-11T13:56:58Z
2022-08-11T11:58:13Z,42.805,6.029,13.3010,4.60042,2470.497,2022-8-11T14:00:02Z
2022-08-11T12:01:16Z,42.805,6.029,13.3010,4.60046,2470.507,2022-8-11T14:03:05Z
2022-08-11T12:04:19Z,42.805,6.029,13.3009,4.60043,2470.52,2022-8-11T14:06:08Z
2022-08-11T12:07:22Z,42.805,6.029,13.3012,4.60042,2470.507,2022-8-11T14:09:11Z
2022-08-11T12:10:25Z,42.805,6.029,13.3006,4.60045,2470.497,2022-8-11T14:12:14Z
2022-08-11T12:13:28Z,42.805,6.029,13.3009,4.60050,2470.497,2022-8-11T14:15:17Z
2022-08-11T12:16:31Z,42.805,6.029,13.3010,4.60048,2470.507,2022-8-11T14:18:20Z
2022-08-11T12:19:35Z,42.805,6.029,13.3010,4.60051,2470.483,2022-8-11T14:21:23Z
2022-08-11T12:22:38Z,42.805,6.029,13.3009,4.60045,2470.497,2022-8-11T14:24:27Z
2022-08-11T12:25:41Z,42.805,6.029,13.3009,4.60052,2470.507,2022-8-11T14:27:30Z
2022-08-11T12:28:44Z,42.805,6.029,13.3005,4.60046,2470.516,2022-8-11T14:30:33Z
2022-08-11T12:31:47Z,42.805,6.029,13.3009,4.60045,2470.483,2022-8-11T14:33:36Z
2022-08-11T12:34:50Z,42.805,6.029,13.3006,4.60051,2470.46,2022-8-11T14:36:39Z
2022-08-11T12:37:53Z,42.805,6.029,13.3008,4.60046,2470.507,2022-8-11T14:39:42Z
2022-08-11T12:40:56Z,42.805,6.029,13.3010,4.60045,2470.46,2022-8-11T14:42:45Z
2022-08-11T12:44:00Z,42.805,6.029,13.3009,4.60048,2470.474,2022-8-11T14:45:48Z
2022-08-11T12:47:03Z,42.805,6.029,13.3009,4.60046,2470.497,2022-8-11T14:48:52Z
2022-08-11T12:50:06Z,42.805,6.029,13.3007,4.60046,2470.46,2022-8-11T14:51:55Z
2022-08-11T12:53:09Z,42.805,6.029,13.3016,4.60045,2470.483,2022-8-11T14:54:58Z
2022-08-11T12:56:12Z,42.805,6.029,13.3010,4.60046,2470.507,2022-8-11T14:58:01Z
2022-08-11T12:59:15Z,42.805,6.029,13.3007,4.60045,2470.46,2022-8-11T15:01:04Z
2022-08-11T13:02:18Z,42.805,6.029,13.3009,4.60045,2470.483,2022-8-11T15:04:07Z
2022-08-11T13:05:21Z,42.805,6.029,13.3009,4.60049,2470.544,2022-8-11T15:07:10Z
2022-08-11T13:08:25Z,42.805,6.029,13.3008,4.60046,2470.497,2022-8-11T15:10:13Z
2022-08-11T13:11:28Z,42.805,6.029,13.3006,4.60044,2470.483,2022-8-11T15:13:17Z
2022-08-11T13:14:31Z,42.805,6.029,13.3011,4.60046,2470.507,2022-8-11T15:16:20Z
2022-08-11T13:17:34Z,42.805,6.029,13.3011,4.60046,2470.507,2022-8-11T15:19:23Z
2022-08-11T13:20:37Z,42.805,6.029,13.3006,4.60049,2470.446,2022-8-11T15:22:26Z
2022-08-11T13:23:40Z,42.805,6.029,13.3009,4.60046,2470.52,2022-8-11T15:25:29Z
2022-08-11T13:26:43Z,42.805,6.029,13.3007,4.60044,2470.483,2022-8-11T15:28:32Z
2022-08-11T13:29:46Z,42.805,6.029,13.3008,4.60044,2470.483,2022-8-11T15:31:35Z
2022-08-11T13:32:50Z,42.805,6.029,13.3006,4.60044,2470.483,2022-8-11T15:34:38Z
2022-08-11T13:35:53Z,42.805,6.029,13.3007,4.60044,2470.483,2022-8-11T15:37:42Z
2022-08-11T13:38:56Z,42.805,6.029,13.3009,4.60045,2470.497,2022-8-11T15:40:45Z
2022-08-11T13:41:59Z,42.805,6.029,13.3007,4.60044,2470.46,2022-8-11T15:43:48Z
2022-08-11T13:45:02Z,42.805,6.029,13.3007,4.60045,2470.497,2022-8-11T15:46:51Z
2022-08-11T13:48:05Z,42.805,6.029,13.3009,4.60045,2470.483,2022-8-11T15:49:54Z
2022-08-11T13:51:08Z,42.805,6.029,13.3007,4.60044,2470.52,2022-8-11T15:52:57Z
2022-08-11T13:54:11Z,42.805,6.029,13.3008,4.60045,2470.507,2022-8-11T15:56:00Z
2022-08-11T13:57:15Z,42.805,6.029,13.3011,4.60044,2470.497,2022-8-11T15:59:03Z
2022-08-11T14:00:18Z,42.805,6.029,13.3010,4.60045,2470.497,2022-8-11T16:02:07Z
2022-08-11T14:03:21Z,42.805,6.029,13.3011,4.60051,2470.53,2022-8-11T16:05:10Z
2022-08-11T14:06:24Z,42.805,6.029,13.3009,4.60048,2470.507,2022-8-11T16:08:13Z
2022-08-11T14:09:27Z,42.805,6.029,13.3006,4.60049,2470.497,2022-8-11T16:11:16Z
2022-08-11T14:12:30Z,42.805,6.029,13.3009,4.60046,2470.507,2022-8-11T16:14:19Z
2022-08-11T14:15:33Z,42.805,6.029,13.3010,4.60046,2470.507,2022-8-11T16:17:22Z
2022-08-11T14:18:36Z,42.805,6.029,13.3011,4.60046,2470.507,2022-8-11T16:20:25Z
2022-08-11T14:21:40Z,42.805,6.029,13.3014,4.60050,2470.507,2022-8-11T16:23:28Z
2022-08-11T14:24:43Z,42.805,6.029,13.3010,4.60047,2470.483,2022-8-11T16:26:32Z
2022-08-11T14:27:46Z,42.805,6.029,13.3007,4.60046,2470.507,2022-8-11T16:29:35Z
2022-08-11T14:30:49Z,42.805,6.029,13.3010,4.60045,2470.53,2022-8-11T16:32:38Z
2022-08-11T14:33:52Z,42.805,6.029,13.3011,4.60047,2470.553,2022-8-11T16:35:41Z
2022-08-11T14:36:55Z,42.805,6.029,13.3011,4.60045,2470.544,2022-8-11T16:38:44Z
2022-08-11T14:39:58Z,42.805,6.029,13.3011,4.60046,2470.497,2022-8-11T16:41:47Z
2022-08-11T14:43:01Z,42.805,6.029,13.3009,4.60046,2470.53,2022-8-11T16:44:50Z
2022-08-11T14:46:05Z,42.805,6.029,13.3008,4.60046,2470.567,2022-8-11T16:47:53Z
2022-08-11T14:49:08Z,42.805,6.029,13.3009,4.60047,2470.53,2022-8-11T16:50:57Z
2022-08-11T14:52:11Z,42.805,6.029,13.3009,4.60052,2470.553,2022-8-11T16:54:00Z
2022-08-11T14:55:14Z,42.805,6.029,13.3014,4.60047,2470.553,2022-8-11T16:57:03Z
2022-08-11T14:58:17Z,42.805,6.029,13.3014,4.60047,2470.553,2022-8-11T17:00:06Z
2022-08-11T15:01:20Z,42.805,6.029,13.3011,4.60049,2470.567,2022-8-11T17:03:09Z
2022-08-11T15:04:23Z,42.805,6.029,13.3011,4.60047,2470.53,2022-8-11T17:06:12Z
2022-08-11T15:07:26Z,42.805,6.029,13.3012,4.60045,2470.53,2022-8-11T17:09:15Z
2022-08-11T15:10:30Z,42.805,6.029,13.3012,4.60050,2470.567,2022-8-11T17:12:18Z
2022-08-11T15:13:33Z,42.805,6.029,13.3006,4.60049,2470.553,2022-8-11T17:15:22Z